Regional Weather Roundup
Issued by NWS

Home | Current Version | Previous Version | Text Only | Print | Product List | Glossary On
Versions: 1 2 3 4 5 6 7 8 9 10 11 12 13 14 15 16 17 18 19 20 21 22 23 24 25 26 27 28
000
ASUS45 KREV 200210
RWRNV
NEVADA REGIONAL WEATHER ROUNDUP
NATIONAL WEATHER SERVICE RENO NV
600 PM PST SUN FEB 19 2017

NOTE: "FAIR" INDICATES FEW OR NO CLOUDS BELOW 12,000 FEET WITH NO
SIGNIFICANT WEATHER AND/OR OBSTRUCTIONS TO VISIBILITY.

NVZ001-003-004-200300-
WESTERN NEVADA

CITY           SKY/WX    TMP DP  RH WIND       PRES   REMARKS
RENO           MOCLDY    48  33  56 S22G28    29.75R
MINDEN         FAIR      45  32  61 S16G23    29.81R
PYRAMID LAKE     N/A     50 N/A N/A SW20        N/A
FALLON         CLOUDY    56  26  31 SW13      29.75R
LOVELOCK       MOCLDY    50  31  48 SW10      29.73R
HAWTHORNE      MOCLDY    55  27  33 S16       29.79R
$$

NVZ002-CAZ072-073-200300-
NORTHERN AND CENTRAL SIERRA

CITY           SKY/WX    TMP DP  RH WIND       PRES   REMARKS
S. LAKE TAHOE  LGT SNOW  36  33  89 S8        29.83R FOG
TRUCKEE        RAIN      36  32  87 SW12      29.82R
SQUAW VLY 8000   N/A     28  28 100 S13         N/A
MAMMOTH LAKES  FAIR      36  30  78 NW3       29.91R
BRIDGEPORT       N/A     37  29  72 SW5       29.82R
$$

NVZ030-031-036-200300-
NORTHERN NEVADA

CITY           SKY/WX    TMP DP  RH WIND       PRES   REMARKS
ELKO           PTCLDY    43  27  53 CALM      29.78R
WINNEMUCCA     MOCLDY    47  34  60 NE3       29.74R
WENDOVER       PTCLDY    48  27  43 NW14      29.79R
$$

NVZ035-037-200300-
CENTRAL NEVADA

CITY           SKY/WX    TMP DP  RH WIND       PRES   REMARKS
ELY            PTCLDY    38  29  70 S10       29.86R
EUREKA           N/A     42  27  55 S7        29.82R
$$

NVZ013-014-200300-
SOUTH CENTRAL NEVADA

CITY           SKY/WX    TMP DP  RH WIND       PRES   REMARKS
TONOPAH        CLOUDY    44  37  76 S13       29.89R
$$

NVZ017-020-022-200300-
SOUTHERN NEVADA

CITY           SKY/WX    TMP DP  RH WIND       PRES   REMARKS
LAS VEGAS      PTCLDY    58  37  45 S7        29.90R
N. LAS VEGAS   PTCLDY    58  40  51 SW10      29.90R
NELLIS AFB     PTCLDY    57  45  65 SE6       29.91R
HENDERSON      CLEAR     55  41  59 S9        29.94R
MERCURY        CLOUDY    52  39  61 SW14      29.91R
$$




USA.gov is the U.S. government's official web portal to all federal, state and local government web resources and services.